Location: Alincthun
(50.7310°N, 1.8022°E)
Time: 02:14:04
(UTC+00:00)

STARLINK-1162 - Pass Details

Date: 17 February 2020
Orbit: 553 x 555 km, 53.0° (Epoch: 09 April)

Event Time Altitude Azimuth Distance (km) Brightness Sun altitude
Exits shadow 04:49:49 61° 324° (NW) 627 3.6 -21.5°
Drops below altitude 10° 04:54:17 10° 77° (ENE) 1,823 7.4 -20.8°
Enters shadow 05:49:53 -72° 274° (W) 12,680 10.4 -12.1°
Maximum altitude 06:30:01 78° 15° (NNE) 566 3.7 -5.8°
